Regional Weather Roundup
Issued by NWS Cleveland, OH

Home | Current Version | Previous Version | Graphics & Text | Print | Product List | Glossary On
Versions: 1 2 3 4 5 6 7 8 9 10 11 12 13 14 15 16 17 18 19 20 21 22 23 24 25 26 27 28 29 30 31 32 33 34 35 36 37 38 39 40 41 42 43 44 45 46 47 48 49 50
000
ASUS41 KCLE 051310
RWRCLE
OHIO REGIONAL WEATHER ROUNDUP
NATIONAL WEATHER SERVICE CLEVELAND, OH
900 AM EDT TUE MAY 05 2015

NOTE: "FAIR" INDICATES FEW OR NO CLOUDS BELOW 12,000 FEET WITH NO
SIGNIFICANT WEATHER AND/OR OBSTRUCTIONS TO VISIBILITY.

OHZ001>008-015>018-024>027-034-035-043-044-051400-
   NORTHWEST OHIO

CITY           SKY/WX    TMP DP  RH WIND       PRES   REMARKS
DEFIANCE       LGT RAIN  60  58  92 NE8       30.25S VSB 3/4
FINDLAY        LGT RAIN  62  59  90 S5        30.25S FOG
TOLEDO EXPRESS CLOUDY    57  43  58 E13       30.27S
TOLEDO EXEC    CLOUDY    57  42  57 NE8       30.28S
LIMA           CLOUDY    61  60  97 SE6       30.25F FOG
$$

OHZ009>014-019>023-028>033-038-089-051400-
   NORTHEAST OHIO

CITY           SKY/WX    TMP DP  RH WIND       PRES   REMARKS
CLE-HOPKINS    CLOUDY    61  58  90 CALM      30.29R FOG
CLE-LAKEFRONT  CLOUDY    53  51  93 W3        30.26R FOG
CUY CO. ARPT   LGT RAIN  63  61  94 S6        30.27S FOG
LORAIN-ELYRIA  CLOUDY    62  60  93 SW6       30.27R FOG
ASHTABULA      CLOUDY    59  59 100 S6        30.28R FOG
AKRON-CANTON   CLOUDY    63  59  87 S5        30.28R FOG
WOOSTER        CLOUDY    62  59  90 SW5       30.29R FOG
MANSFIELD      CLOUDY    64  59  83 SW6       30.28R
YOUNGSTOWN     LGT RAIN  59  58  96 CALM      30.28S VSB 3/4
$$

OHZ042-051>053-060>062-070>072-077>081-051400-
  SOUTHWEST OHIO

CITY           SKY/WX    TMP DP  RH WIND       PRES   REMARKS
CINC-COVINGTON MOSUNNY   68  59  73 S5        30.27R
CINC-LUNKEN    MOSUNNY   63  62  97 CALM      30.28R FOG
HAMILTON       SUNNY     69  60  73 SE5       30.28R
DAYTON         PTSUNNY   65  62  90 SE5       30.29R FOG
WRIGHT-PAT AFB PTSUNNY   64  63  98 SE3       30.28R
DAYTON GENERAL MOSUNNY   66  60  81 SE5       30.27R
WILMINGTON     MOSUNNY   67  58  72 SE6       30.28S
$$

OHZ036-037-039>041-045>050-054>059-063>069-073>076-082>088-051400-
  CENTRAL AND SOUTHEAST OHIO

CITY           SKY/WX    TMP DP  RH WIND       PRES   REMARKS
COLUMBUS       CLOUDY    64  59  83 CALM      30.28R
OSU AIRPORT    CLOUDY    63  60  90 SW3       30.28R
BOLTON FIELD   CLOUDY    63  61  94 CALM      30.29R
RICKENBACK AFB CLOUDY    64  60  87 CALM      30.28R
NEWARK         CLOUDY    63  59  87 CALM      30.28R
MARION         LGT RAIN  62  59  90 W5        30.29R FOG
LANCASTER      PTSUNNY   66  60  81 CALM      30.29R
ZANESVILLE     CLOUDY    62  60  93 SW3       30.29R FOG
NEW PHILLY     LGT RAIN  64  61  90 CALM      30.29R FOG
$$



USA.gov is the U.S. government's official web portal to all federal, state and local government web resources and services.